This demonstration page uses our WeatherBlox Daily Observations layout. Learn more.

Left ArrowRight Arrow

Hourly Observations for June 18, 2019

Temp ( °F °C ) Dew Point ( °F °C ) Humidity (%) Winds ( mph kmh ) Pressure ( in mb ) Visibility ( mi km ) Precip ( " mm )
12:53 am 00:53 Cloudy 67 19.4 66 18.9 97 97 N N/A 29.98 1015 7 11 N/A
1:53 am 01:53 Cloudy with Mist and Fog 67 19.4 66 18.9 97 97 N N/A 29.96 1015 6 10 N/A
2:27 am 02:27 Partly Cloudy with Mist and Fog 66 18.9 66 18.9 100 100 N N/A 29.96 1014 4 6 N/A
2:53 am 02:53 Clear with Mist and Fog 66 18.9 65 18.3 96 96 N N/A 29.95 1014 3 5 N/A
3:06 am 03:06 Mostly Clear with Mist and Fog 66 18.9 65 18.3 96 96 N N/A 29.95 1014 3 4 N/A
3:14 am 03:14 Mostly Cloudy with Mist and Fog 66 18.9 65 18.3 96 96 N N/A 29.95 1014 3 5 N/A
3:53 am 03:53 Mostly Cloudy with Mist and Fog 66 18.9 65 18.3 96 96 N N/A 29.94 1014 3 4 N/A
4:08 am 04:08 Cloudy with Mist and Fog 66 18.9 66 18.9 100 100 N N/A 29.95 1014 3 5 N/A
4:14 am 04:14 Cloudy with Mist and Fog 66 18.9 66 18.9 100 100 N N/A 29.95 1014 3 4 N/A
4:22 am 04:22 Cloudy with Mist and Fog 67 19.4 66 18.9 97 97 N N/A 29.95 1014 3 5 N/A
4:53 am 04:53 Cloudy with Mist and Fog 67 19.4 66 18.9 97 97 N N/A 29.95 1014 4 6 N/A
5:10 am 05:10 Cloudy with Mist and Fog 67 19.4 67 19.4 100 100 N N/A 29.95 1014 5 8 N/A
5:53 am 05:53 Cloudy with Mist and Fog 67 19.4 67 19.4 100 100 N N/A 29.94 1014 5 8 N/A
6:39 am 06:39 Cloudy with Mist and Fog 67 19.4 67 19.4 100 100 N N/A 29.94 1014 3 4 N/A
6:53 am 06:53 Cloudy with Light Rain 68 20 67 19.4 96 96 N N/A 29.94 1014 2 3 0.01 0.25
7:01 am 07:01 Cloudy with Light Rain 68 20 67 19.4 96 96 N N/A 29.95 1014 2 2 N/A
7:05 am 07:05 Cloudy with Light Rain 68 20 67 19.4 96 96 N N/A 29.95 1014 2 3 N/A
7:23 am 07:23 Cloudy with Mist and Fog 68 20 68 20 100 100 N N/A 29.95 1014 3 5 N/A
7:33 am 07:33 Cloudy with Mist and Fog 68 20 68 20 100 100 N N/A 29.95 1014 3 5 N/A
7:41 am 07:41 Cloudy with Mist and Fog 68 20 68 20 100 100 N N/A 29.95 1014 3 5 N/A
7:53 am 07:53 Cloudy with Mist and Fog 69 20.6 68 20 96 96 N N/A 29.95 1014 3 5 N/A
8:27 am 08:27 Cloudy with Mist and Fog 69 20.6 69 20.6 100 100 N N/A 29.95 1014 4 6 N/A
8:53 am 08:53 Cloudy with Mist and Fog 70 21.1 69 20.6 97 97 N N/A 29.96 1015 6 10 N/A
9:17 am 09:17 Cloudy with Light Rain 70 21.1 69 20.6 97 97 N N/A 29.95 1014 6 10 0.01 0.25
9:30 am 09:30 Cloudy with Light Rain 70 21.1 70 21.1 100 100 N N/A 29.95 1014 6 10 0.01 0.25
9:45 am 09:45 Cloudy with Light Rain 71 21.7 70 21.1 96 96 N N/A 29.95 1014 9 14 0.01 0.25
9:53 am 09:53 Cloudy with Light Rain 71 21.7 70 21.1 96 96 N N/A 29.96 1014 9 14 0.01 0.25
10:39 am 10:39 Cloudy 72 22.2 71 21.7 97 97 N N/A 29.93 1014 10 16 N/A
10:46 am 10:46 Cloudy 72 22.2 70 21.1 94 94 SW 3 6 29.93 1014 10 16 N/A
10:53 am 10:53 Cloudy 72 22.2 71 21.7 97 97 N N/A 29.94 1014 10 16 N/A
11:53 am 11:53 Cloudy 74 23.3 70 21.1 88 88 WSW 3 6 29.94 1014 10 16 N/A
12:53 pm 12:53 Cloudy 75 23.9 72 22.2 90 90 VRB 3 6 29.93 1014 10 16 N/A
1:07 pm 13:07 Mostly Cloudy 76 24.4 73 22.8 91 91 VRB 3 6 29.92 1013 10 16 N/A
1:53 pm 13:53 Mostly Cloudy 77 25 74 23.3 90 90 N N/A 29.91 1013 10 16 N/A
2:47 pm 14:47 Cloudy with Heavy Rain 73 23 72 22 94 94 N 6 9 29.89 1012 2 3 0.07 1.78
2:53 pm 14:53 Cloudy with Rain 73 22.8 72 22.2 96 96 N 7 11 29.90 1013 2 3 0.08 2.03
2:56 pm 14:56 Cloudy with Rain 73 22.8 72 22.2 96 96 N 8 13 29.89 1012 3 5 0.01 0.25
3:18 pm 15:18 Cloudy 73 22.8 72 22.2 96 96 NE 3 6 29.89 1012 10 16 0.02 0.51
3:25 pm 15:25 Cloudy with Light Rain 74 23.3 73 22.8 97 97 NNE 5 7 29.89 1012 7 11 0.02 0.51
3:53 pm 15:53 Cloudy with Light Rain 74 23.3 73 22.8 97 97 NE 5 7 29.89 1012 8 13 0.03 0.76
4:53 pm 16:53 Mostly Cloudy with Light Rain 78 25.6 76 24.4 93 93 N N/A 29.87 1011 10 16 N/A
5:53 pm 17:53 Sunny 79 26.1 71 21.7 77 77 W 5 7 29.85 1011 10 16 N/A
6:53 pm 18:53 Partly Cloudy 79 26.1 70 21.1 74 74 NW 7 11 29.84 1010 10 16 N/A
7:38 pm 19:38 Sunny with Nearby Thunderstorms 78 25.6 70 21.1 76 76 NW 6 9 29.82 1010 10 16 N/A
7:53 pm 19:53 Mostly Cloudy with Nearby Thunderstorms 78 25.6 71 21.7 79 79 N N/A 29.83 1010 10 16 N/A
8:07 pm 20:07 Cloudy with Nearby Thunderstorms 76 24.4 68 20 77 77 N N/A 29.83 1010 10 16 N/A
8:20 pm 20:20 Cloudy 75 23.9 69 20.6 82 82 ESE 3 6 29.84 1010 10 16 N/A
8:43 pm 20:43 Mostly Cloudy 73 22.8 69 20.6 87 87 E 6 9 29.84 1010 10 16 N/A
8:53 pm 20:53 Partly Cloudy 72 22.2 69 20.6 91 91 E 5 7 29.85 1011 10 16 N/A
9:53 pm 21:53 Cloudy 71 21.7 68 20 90 90 E 3 6 29.85 1011 10 16 N/A
10:53 pm 22:53 Cloudy 71 21.7 69 20.6 94 94 E 3 6 29.85 1011 10 16 N/A
11:30 pm 23:30 Cloudy with Heavy Rain 71 21.7 69 20.6 94 94 N N/A 29.86 1011 2 3 0.09 2.29
11:37 pm 23:37 Cloudy with Heavy Rain 70 21.1 69 20.6 97 97 N N/A 29.86 1011 2 3 0.15 3.81
11:44 pm 23:44 Cloudy with Heavy Rain 70 21.1 69 20.6 97 97 W 3 6 29.86 1011 1 2 0.23 5.84
11:53 pm 23:53 Cloudy with Heavy Rain 70 21.1 69 20.6 97 97 W 5 7 29.86 1011 2 3 0.30 7.62
11:58 pm 23:58 Cloudy with Heavy Rain 71 21.7 69 20.6 94 94 W 5 7 29.86 1011 2 2 0.04 1.02

Powered by AerisWeather